VA2CPJ Weather Reports


time (UTC)temp
F
wind
direction
speed
knots
gust
knots
rain 1hr
in
rain 24hr
in
rain mn
in
humidity
%
barometer
mb
20260505230030 58 265 6.1 10.4 0.00 0.00 0.00 92 1009.2
20260505225712 58 246 3.5 6.1 0.00 0.00 0.00 92 1009.9
20260505225527 58 242 3.5 6.1 0.00 0.00 0.00 92 1010.2
20260505225020 59 223 5.2 8.7 0.00 0.00 0.00 91 1008.9
20260505224540 59 235 4.3 6.1 0.00 0.00 0.00 90 1009.9
20260505224532 59 226 5.2 10.4 0.00 0.00 0.00 90 1009.9
20260505224034 59 269 5.2 8.7 0.00 0.00 0.00 87 1008.9
20260505223545 59 263 6.1 9.6 0.00 0.00 0.00 87 1009.9
20260505223540 59 254 6.1 7.8 0.00 0.00 0.00 87 1009.6
20260505223042 59 241 7.0 11.3 0.00 0.00 0.00 86 1008.5
20260505222525 60 240 6.1 8.7 0.00 0.00 0.00 85 1009.6
20260505222104 60 243 5.2 7.8 0.00 0.00 0.00 84 1008.5
20260505221616 60 295 5.2 7.0 0.00 0.00 0.00 83 1009.2
20260505221521 60 281 6.1 11.3 0.00 0.00 0.00 83 1009.2
20260505221045 60 287 5.2 7.0 0.00 0.00 0.00 82 1008.2
20260505220614 61 279 6.1 8.7 0.00 0.00 0.00 81 1009.2
20260505220534 61 282 4.3 8.7 0.00 0.00 0.00 81 1008.9
20260505220020 61 287 6.1 9.6 0.00 0.00 0.00 81 1008.2
20260505215523 61 302 6.1 9.6 0.00 0.00 0.00 80 1008.9
20260505215025 61 299 7.8 13.0 0.00 0.00 0.00 80 1007.8
20260505214553 62 307 12.2 18.2 0.00 0.00 0.00 79 1008.5
20260505214527 62 307 9.6 15.6 0.00 0.00 0.00 79 1008.5
20260505214021 62 307 10.4 19.1 0.00 0.00 0.00 79 1007.5
20260505213558 62 308 12.2 16.5 0.00 0.00 0.00 78 1008.2
20260505213532 62 310 12.2 20.0 0.00 0.00 0.00 78 1008.2
20260505213034 62 309 12.2 27.8 0.00 0.00 0.00 79 1007.2
20260505212528 63 302 13.9 18.2 0.00 0.00 0.00 78 1007.8
20260505212520 63 302 14.8 19.1 0.00 0.00 0.00 78 1008.2
20260505212022 65 309 17.4 27.8 0.00 0.00 0.00 75 1007.2
20260505211545 70 282 13.9 19.1 0.00 0.00 0.00 61 1007.5
20260505211524 70 284 14.8 22.6 0.00 0.00 0.00 61 1007.8
20260505211044 70 281 19.1 26.9 0.00 0.00 0.00 60 1005.8
20260505210520 70 252 16.5 26.9 0.00 0.00 0.00 60 1006.8
20260505210032 70 260 15.6 23.5 0.00 0.00 0.00 61 1005.8
20260505205552 71 281 13.9 24.3 0.00 0.00 0.00 61 1006.5
20260505205019 70 261 15.6 22.6 0.00 0.00 0.00 62 1005.5
20260505204548 70 259 17.4 26.9 0.00 0.00 0.00 63 1006.5
20260505204522 70 253 15.6 26.9 0.00 0.00 0.00 63 1006.8
20260505204033 70 268 14.8 22.6 0.00 0.00 0.00 64 1005.5
20260505203716 70 271 13.9 19.1 0.00 0.00 0.00 65 1006.8
20260505203527 70 264 13.9 18.2 0.00 0.00 0.00 65 1006.5
20260505203020 69 251 12.2 19.1 0.00 0.00 0.00 67 1005.8
20260505202532 69 275 12.2 14.8 0.00 0.00 0.00 68 1006.8
20260505202523 69 266 15.6 20.0 0.00 0.00 0.00 68 1006.5
20260505202026 70 271 10.4 18.2 0.00 0.00 0.00 69 1005.8
20260505201554 69 266 9.6 12.2 0.00 0.00 0.00 70 1006.5
20260505201519 69 267 10.4 15.6 0.00 0.00 0.00 71 1006.8
20260505201022 69 274 10.4 17.4 0.00 0.00 0.00 72 1005.8
20260505200542 68 265 10.4 13.9 0.00 0.00 0.00 73 1006.8
20260505200524 68 272 9.6 14.8 0.00 0.00 0.00 73 1006.8
20260505200117 68 265 11.3 20.0 0.00 0.00 0.00 74 1005.8
20260505195602 67 277 11.3 18.2 0.00 0.00 0.00 75 1006.8
20260505195539 67 280 12.2 15.6 0.00 0.00 0.00 76 1006.8
20260505195032 67 263 9.6 16.5 0.00 0.00 0.00 77 1006.1
20260505194618 66 259 10.4 15.6 0.00 0.00 0.00 78 1007.2
20260505194552 66 257 10.4 13.9 0.00 0.00 0.00 78 1007.2
20260505194040 66 259 11.3 15.6 0.00 0.00 0.00 79 1006.5
20260505193522 66 273 9.6 15.6 0.00 0.00 0.00 80 1007.5
20260505193025 66 238 8.7 14.8 0.00 0.00 0.00 81 1006.5
20260505192628 65 268 8.7 13.0 0.00 0.00 0.00 82 1007.5
20260505192602 65 265 9.6 15.6 0.00 0.00 0.00 82 1007.5
20260505192041 64 267 8.7 13.0 0.00 0.00 0.00 84 1006.8
20260505191549 64 240 7.8 9.6 0.00 0.00 0.00 85 1007.5
20260505191523 64 244 6.1 10.4 0.00 0.00 0.00 85 1007.5
20260505191034 64 243 5.2 7.8 0.00 0.00 0.00 86 1006.8
20260505190621 63 242 4.3 4.3 0.00 0.00 0.00 87 1007.8
20260505190540 63 234 7.0 13.0 0.00 0.00 0.00 86 1008.2
20260505190043 63 249 6.1 10.4 0.00 0.00 0.00 87 1007.2
20260505185533 62 237 4.3 7.8 0.00 0.00 0.00 87 1008.2
20260505185524 62 212 4.3 4.3 0.00 0.00 0.00 87 1007.8
20260505185102 61 230 5.2 8.7 0.00 0.00 0.00 88 1007.2
20260505184538 61 249 2.6 4.3 0.00 0.00 0.00 91 1007.8
20260505184107 60 174 1.7 5.2 0.00 0.00 0.00 92 1007.2
20260505183526 60 196 1.7 4.3 0.00 0.00 0.00 92 1008.2
20260505183349 59 146 4.3 5.2 0.00 0.00 0.00 93 1008.2
20260505183028 59 160 1.7 5.2 0.00 0.00 0.00 93 1007.5
20260505182549 59 157 3.5 6.1 0.00 0.00 0.00 93 1008.2
20260505182025 59 175 2.6 4.3 0.00 0.00 0.00 94 1007.5
20260505181548 59 178 3.5 7.0 0.00 0.00 0.00 94 1008.5
20260505181021 58 169 2.6 4.3 0.00 0.00 0.00 93 1007.8
20260505180549 58 195 1.7 3.5 0.00 0.00 0.00 93 1008.9
20260505180103 58 218 0.9 2.6 0.00 0.00 0.00 93 1007.8
20260505175548 58 262 2.6 4.3 0.00 0.00 0.00 93 1008.9
20260505175537 58 277 2.6 2.6 0.00 0.00 0.00 93 1008.5
20260505175453 58 303 2.6 2.6 0.00 0.00 0.00 93 1008.5
20260505175025 57 313 3.5 5.2 0.00 0.00 0.00 94 1007.8
20260505174524 58 312 3.5 5.2 0.00 0.00 0.00 93 1008.9
20260505174047 58 323 3.5 5.2 0.00 0.00 0.00 93 1008.2
20260505173529 58 324 2.6 3.5 0.00 0.00 0.00 92 1008.9
20260505173521 58 331 3.5 6.1 0.00 0.00 0.00 92 1008.9
20260505173023 58 334 3.5 6.1 0.00 0.00 0.00 91 1007.8
20260505172644 58 339 1.7 3.5 0.00 0.00 0.00 91 1008.5
20260505172534 58 334 1.7 5.2 0.00 0.00 0.00 91 1008.9
20260505172106 59 344 1.7 4.3 0.00 0.00 0.00 90 1007.5
20260505171623 59 336 2.6 5.2 0.00 0.00 0.00 89 1008.5
20260505171530 59 335 1.7 2.6 0.00 0.00 0.00 88 1008.5
20260505171152 59 334 2.6 2.6 0.00 0.00 0.00 87 1008.5
20260505171033 59 344 1.7 2.6 0.00 0.00 0.00 87 1007.5
20260505170527 59 333 2.6 4.3 0.00 0.00 0.00 87 1008.5
20260505170020 59 338 1.7 3.5 0.00 0.00 0.00 87 1007.5
20260505165619 59 331 3.5 5.2 0.00 0.00 0.00 85 1008.5
20260505165532 59 324 2.6 5.2 0.00 0.00 0.00 86 1008.5
20260505165034 59 294 3.5 4.3 0.00 0.00 0.00 86 1007.5
20260505164528 59 298 4.3 7.8 0.00 0.00 0.00 85 1008.5
20260505164519 59 304 4.3 6.1 0.00 0.00 0.00 85 1008.9
20260505164022 60 294 4.3 7.0 0.00 0.00 0.00 83 1008.2
20260505163544 62 288 8.7 13.0 0.00 0.00 0.00 74 1008.9
20260505163533 62 272 7.0 13.0 0.00 0.00 0.00 76 1009.2
20260505163027 62 275 7.0 13.0 0.00 0.00 0.00 73 1008.2
20260505162605 63 262 8.7 11.3 0.00 0.00 0.00 73 1008.9
20260505162520 63 253 7.0 9.6 0.00 0.00 0.00 73 1008.9
20260505162023 63 245 7.8 13.0 0.00 0.00 0.00 73 1008.2
20260505161525 63 247 7.0 11.3 0.00 0.00 0.00 73 1009.2
20260505161112 63 240 5.2 8.7 0.00 0.00 0.00 74 1008.2
20260505160523 63 265 5.2 8.7 0.00 0.00 0.00 74 1009.2
20260505153031 65 234 12.2 19.1 0.00 0.00 0.00 69 1008.5
20260505152533 65 226 13.9 18.2 0.00 0.00 0.00 68 1009.2
20260505152057 66 243 13.0 19.1 0.00 0.00 0.00 66 1008.5
20260505151558 66 226 14.8 20.9 0.00 0.00 0.00 64 1009.2
20260505151521 66 232 13.0 26.1 0.00 0.00 0.00 64 1009.2
20260505151032 67 265 13.9 21.7 0.00 0.00 0.00 60 1008.5
20260505150552 65 271 13.9 22.6 0.00 0.00 0.00 59 1009.2
20260505150526 66 268 11.3 22.6 0.00 0.00 0.00 59 1009.6
20260505140529 63 29 0.9 3.5 0.00 0.00 0.00 60 1009.6
20260505140520 63 353 0.9 2.6 0.00 0.00 0.00 60 1009.6
20260505125024 57 73 1.7 4.3 0.00 0.00 0.00 67 1009.2
20260505124609 56 95 0.9 3.5 0.00 0.00 0.00 69 1009.9
20260505124534 56 100 1.7 3.5 0.00 0.00 0.00 69 1010.2
20260505124019 55 77 4.3 7.8 0.00 0.00 0.00 70 1009.2
20260505123623 55 89 3.5 4.3 0.00 0.00 0.00 71 1009.9
20260505123531 55 88 4.3 7.8 0.00 0.00 0.00 71 1010.2
20260505123024 54 91 4.3 7.0 0.00 0.00 0.00 72 1009.6
20260505122553 54 71 3.5 7.0 0.00 0.00 0.00 74 1010.2
20260505122518 54 75 3.5 6.1 0.00 0.00 0.00 74 1010.6
20260505122021 54 68 4.3 7.8 0.00 0.00 0.00 75 1009.6
20260505121532 53 68 4.3 5.2 0.00 0.00 0.00 75 1010.6
20260505121104 52 76 5.2 8.7 0.00 0.00 0.00 76 1009.6
20260505120603 53 91 6.1 7.0 0.00 0.00 0.00 76 1010.6
20260505120519 53 91 5.2 8.7 0.00 0.00 0.00 76 1010.6
20260505120022 52 62 4.3 6.1 0.00 0.00 0.00 78 1009.9
20260505115709 53 64 4.3 6.1 0.00 0.00 0.00 76 1010.6
20260505115542 53 67 4.3 7.0 0.00 0.00 0.00 77 1010.9
20260505115018 53 67 2.6 6.1 0.00 0.00 0.00 76 1009.9
20260505114648 53 76 5.2 7.0 0.00 0.00 0.00 75 1010.6
20260505114521 53 74 4.3 7.0 0.00 0.00 0.00 75 1010.9
20260505114033 54 79 4.3 4.3 0.00 0.00 0.00 74 1009.9
20260505113543 53 56 1.7 3.5 0.00 0.00 0.00 76 1010.6
20260505113525 53 65 1.7 3.5 0.00 0.00 0.00 76 1010.9
20260505113020 53 58 2.6 4.3 0.00 0.00 0.00 76 1009.9
20260505112557 53 76 1.7 2.6 0.00 0.00 0.00 77 1010.6
20260505112539 52 66 1.7 3.5 0.00 0.00 0.00 77 1010.9
20260505112056 51 82 4.3 7.8 0.00 0.00 0.00 78 1009.9
20260505111611 51 68 5.2 7.0 0.00 0.00 0.00 79 1010.6
20260505111556 51 64 5.2 6.1 0.00 0.00 0.00 79 1010.6
20260505111024 50 71 6.1 13.0 0.00 0.00 0.00 81 1009.9
20260505110540 49 83 6.1 8.7 0.00 0.00 0.00 82 1010.6
20260505110532 49 72 6.1 9.6 0.00 0.00 0.00 82 1010.6
20260505102137 46 131 2.6 5.2 0.00 0.00 0.00 87 1009.9
20260505101634 45 79 4.3 7.0 0.00 0.00 0.00 88 1010.6
20260505101522 46 85 4.3 7.0 0.00 0.00 0.00 88 1010.9
20260505101025 45 74 0.9 3.5 0.00 0.00 0.00 89 1009.9
20260505100555 44 80 3.5 4.3 0.00 0.00 0.00 89 1010.9
20260505100544 44 78 3.5 4.3 0.00 0.00 0.00 89 1010.9
20260505100021 44 74 1.7 3.5 0.00 0.00 0.00 89 1010.2
20260505095523 44 82 1.7 3.5 0.00 0.00 0.00 89 1010.9
20260505095025 44 81 1.7 3.5 0.00 0.00 0.00 89 1010.2
20260505094520 44 73 2.6 3.5 0.00 0.00 0.00 89 1011.3
20260505094031 44 111 2.6 3.5 0.00 0.00 0.00 89 1010.2
20260505093559 44 122 2.6 3.5 0.00 0.00 0.00 89 1011.3
20260505093533 44 115 2.6 3.5 0.00 0.00 0.00 89 1010.9
20260505093027 44 96 3.5 5.2 0.00 0.00 0.00 89 1010.2
20260505092547 44 108 1.7 3.5 0.00 0.00 0.00 89 1011.3
20260505092521 44 94 1.7 3.5 0.00 0.00 0.00 89 1011.3
20260505092041 44 84 2.6 5.2 0.00 0.00 0.00 89 1010.2
20260505091601 44 81 2.6 2.6 0.00 0.00 0.00 89 1010.9
20260505091534 44 72 2.6 3.5 0.00 0.00 0.00 89 1011.3
20260505091021 44 78 2.6 4.3 0.00 0.00 0.00 89 1010.2
20260505090742 44 74 3.5 4.3 0.00 0.00 0.00 89 1011.3
20260505090557 44 73 3.5 5.2 0.00 0.00 0.00 89 1011.3
20260505090029 44 76 1.7 3.5 0.00 0.00 0.00 89 1010.6
20260505085553 45 76 1.7 2.6 0.00 0.00 0.00 89 1011.3
20260505085527 45 77 0.9 2.6 0.00 0.00 0.00 89 1011.3
20260505085021 44 93 2.6 5.2 0.00 0.00 0.00 89 1010.2
20260505084524 44 62 1.7 3.5 0.00 0.00 0.00 89 1010.9
20260505084025 44 76 1.7 2.6 0.00 0.00 0.00 89 1010.2
20260505083537 44 126 1.7 2.6 0.00 0.00 0.00 89 1010.9
20260505083528 44 98 0.9 2.6 0.00 0.00 0.00 89 1011.3
20260505083022 44 95 1.7 3.5 0.00 0.00 0.00 89 1010.2
20260505082553 44 81 2.6 4.3 0.00 0.00 0.00 89 1011.3
20260505082533 44 79 2.6 4.3 0.00 0.00 0.00 89 1010.9
20260505082040 44 101 2.6 3.5 0.00 0.00 0.00 89 1010.2
20260505081555 44 81 2.6 2.6 0.00 0.00 0.00 89 1011.3
20260505081529 44 71 1.7 2.6 0.00 0.00 0.00 89 1011.3
20260505081023 44 79 1.7 3.5 0.00 0.00 0.00 89 1010.6
20260505080601 44 128 0.9 3.5 0.00 0.00 0.00 89 1011.6
20260505080554 44 129 0.9 1.7 0.00 0.00 0.00 89 1011.3
20260505080024 44 55 0.9 2.6 0.00 0.00 0.00 89 1010.6
20260505075614 44 67 0.9 1.7 0.00 0.00 0.00 89 1011.6
20260505075522 44 83 0.9 1.7 0.00 0.00 0.00 89 1011.6
20260505075025 44 66 0.9 2.6 0.00 0.00 0.00 89 1010.6
20260505074738 44 85 2.6 4.3 0.00 0.00 0.00 89 1011.6
20260505074553 44 99 2.6 3.5 0.00 0.00 0.00 89 1011.6
20260505074020 44 47 1.7 2.6 0.00 0.00 0.00 89 1010.6
20260505073541 44 84 3.5 6.1 0.00 0.00 0.00 89 1011.6
20260505073025 44 68 0.9 2.6 0.00 0.00 0.00 89 1010.9
20260505072537 45 92 0.9 1.7 0.00 0.00 0.00 89 1011.6
20260505072519 45 61 1.7 2.6 0.00 0.00 0.00 89 1011.6
20260505072022 45 56 0.9 2.6 0.00 0.00 0.00 89 1010.6
20260505071533 45 43 0.9 2.6 0.00 0.00 0.00 89 1011.6
20260505071053 45 43 0.9 2.6 0.00 0.00 0.00 89 1010.6
20260505070529 45 75 0.0 1.7 0.00 0.00 0.00 89 1011.6
20260505070107 45 68 1.7 3.5 0.00 0.00 0.00 89 1010.9
20260505065534 44 53 1.7 1.7 0.00 0.00 0.00 88 1011.6
20260505065525 44 65 1.7 2.6 0.00 0.00 0.00 88 1011.6
20260505065109 44 54 2.6 3.5 0.00 0.00 0.00 88 1010.9
20260505064548 44 57 1.7 2.6 0.00 0.00 0.00 88 1011.9
20260505064522 44 57 2.6 2.6 0.00 0.00 0.00 88 1011.9
20260505064024 44 94 0.9 2.6 0.00 0.00 0.00 87 1011.3
20260505063629 45 85 1.7 3.5 0.00 0.00 0.00 87 1011.9
20260505063104 45 69 3.5 6.1 0.00 0.00 0.00 86 1011.3
20260505062650 45 63 4.3 4.3 0.00 0.00 0.00 86 1011.9
20260505062523 45 67 3.5 6.1 0.00 0.00 0.00 86 1011.9
20260505062043 45 64 3.5 4.3 0.00 0.00 0.00 86 1011.3
20260505061647 46 70 1.7 2.6 0.00 0.00 0.00 86 1011.9
20260505061519 45 67 1.7 2.6 0.00 0.00 0.00 86 1012.3
20260505061042 46 64 2.6 4.3 0.00 0.00 0.00 86 1011.3
20260505060533 46 68 2.6 2.6 0.00 0.00 0.00 86 1012.3
20260505060027 45 61 2.6 5.2 0.00 0.00 0.00 86 1011.6
20260505055541 45 67 3.5 5.2 0.00 0.00 0.00 86 1012.6
20260505055043 46 62 4.3 7.0 0.00 0.00 0.00 85 1011.6
20260505054534 46 62 2.6 4.3 0.00 0.00 0.00 86 1012.6
20260505054525 46 69 2.6 3.5 0.00 0.00 0.00 86 1012.6
20260505054028 46 61 2.6 5.2 0.00 0.00 0.00 86 1011.9
20260505053640 46 65 4.3 5.2 0.00 0.00 0.00 87 1012.6
20260505053556 46 62 3.5 4.3 0.00 0.00 0.00 87 1013.0
20260505053025 46 59 2.6 3.5 0.00 0.00 0.00 86 1011.9
20260505052657 46 59 3.5 4.3 0.00 0.00 0.00 86 1012.6
20260505052535 46 62 3.5 5.2 0.00 0.00 0.00 86 1013.0
20260505052038 46 64 4.3 6.1 0.00 0.00 0.00 86 1011.9
20260505051532 46 59 2.6 2.6 0.00 0.00 0.00 86 1013.0
20260505051523 46 63 3.5 4.3 0.00 0.00 0.00 86 1013.0
20260505051025 46 64 3.5 4.3 0.00 0.00 0.00 86 1011.9
20260505050554 46 60 3.5 5.2 0.00 0.00 0.00 86 1013.0
20260505050539 46 62 3.5 5.2 0.00 0.00 0.00 86 1013.0
20260505041604 47 63 2.6 2.6 0.00 0.00 0.00 84 1013.3
20260505041536 47 68 2.6 5.2 0.00 0.00 0.00 84 1013.7
20260505041040 47 69 4.3 6.1 0.00 0.00 0.00 83 1012.6
20260505040531 47 82 3.5 4.3 0.00 0.00 0.00 84 1013.3
20260505040523 47 85 4.3 5.2 0.00 0.00 0.00 84 1013.7
20260505040034 47 81 3.5 6.1 0.00 0.00 0.00 84 1012.6
20260505035528 47 67 3.5 5.2 0.00 0.00 0.00 83 1013.7
20260505035519 47 68 3.5 3.5 0.00 0.00 0.00 83 1013.3
20260505035022 47 61 4.3 5.2 0.00 0.00 0.00 83 1012.6
20260505034634 47 66 2.6 3.5 0.00 0.00 0.00 83 1013.7
20260505034524 47 68 2.6 3.5 0.00 0.00 0.00 83 1013.7
20260505034225 47 81 1.7 2.6 0.00 0.00 0.00 83 1013.0
20260505033540 47 73 3.5 4.3 0.00 0.00 0.00 83 1013.7
20260505033538 47 70 3.5 4.3 0.00 0.00 0.00 83 1013.7
20260505033033 47 77 3.5 4.3 0.00 0.00 0.00 82 1012.6
20260505032543 47 74 3.5 4.3 0.00 0.00 0.00 82 1013.7
20260505032526 47 79 3.5 4.3 0.00 0.00 0.00 82 1013.7
20260505032019 47 94 2.6 5.2 0.00 0.00 0.00 81 1013.0
20260505031522 47 79 2.6 4.3 0.00 0.00 0.00 81 1013.7
20260505031044 47 75 3.5 5.2 0.00 0.00 0.00 81 1013.0
20260505030628 47 82 3.5 4.3 0.00 0.00 0.00 80 1014.0
20260505030526 47 82 3.5 4.3 0.00 0.00 0.00 80 1014.0
20260505030055 47 82 3.5 4.3 0.00 0.00 0.00 79 1013.3
20260505025540 47 87 2.6 4.3 0.00 0.00 0.00 79 1014.0
20260505025523 47 91 2.6 3.5 0.00 0.00 0.00 79 1014.0
20260505025030 48 93 3.5 5.2 0.00 0.00 0.00 79 1013.0
20260505024554 48 99 2.6 3.5 0.00 0.00 0.00 78 1014.0
20260505024545 48 105 3.5 4.3 0.00 0.00 0.00 78 1014.0
20260505024022 48 99 2.6 4.3 0.00 0.00 0.00 78 1013.0
20260505023634 48 79 4.3 5.2 0.00 0.00 0.00 78 1014.0
20260505023533 48 75 4.3 5.2 0.00 0.00 0.00 78 1014.0
20260505023026 48 76 3.5 5.2 0.00 0.00 0.00 78 1013.3
20260505022546 47 82 3.5 5.2 0.00 0.00 0.00 79 1014.0
20260505022520 47 78 3.5 5.2 0.00 0.00 0.00 79 1014.3
20260505022052 47 75 3.5 4.3 0.00 0.00 0.00 80 1013.3
20260505021551 47 68 2.6 3.5 0.00 0.00 0.00 82 1014.3
20260505021526 47 69 2.6 3.5 0.00 0.00 0.00 82 1014.0
20260505021045 47 64 2.6 3.5 0.00 0.00 0.00 82 1013.3
20260505020623 47 74 2.6 3.5 0.00 0.00 0.00 81 1014.3
20260505020559 47 73 2.6 3.5 0.00 0.00 0.00 81 1014.3
20260505020024 47 78 3.5 3.5 0.00 0.00 0.00 81 1013.3
20260505015546 47 102 2.6 3.5 0.00 0.00 0.00 82 1014.3
20260505015020 47 80 3.5 4.3 0.00 0.00 0.00 81 1013.7
20260505014552 47 106 2.6 3.5 0.00 0.00 0.00 81 1014.3
20260505014523 47 100 2.6 3.5 0.00 0.00 0.00 81 1014.7
20260505014051 47 95 1.7 2.6 0.00 0.00 0.00 81 1013.7
20260505013554 47 78 1.7 2.6 0.00 0.00 0.00 80 1014.7
20260505013519 47 70 1.7 2.6 0.00 0.00 0.00 81 1014.3
20260505013043 47 83 2.6 2.6 0.00 0.00 0.00 81 1013.7
20260505012542 47 91 1.7 2.6 0.00 0.00 0.00 80 1014.7
20260505012525 47 80 2.6 3.5 0.00 0.00 0.00 80 1014.3
20260505012112 47 75 2.6 3.5 0.00 0.00 0.00 80 1013.7
20260505011520 47 66 2.6 2.6 0.00 0.00 0.00 80 1014.7
20260505011023 47 69 2.6 3.5 0.00 0.00 0.00 80 1013.7
20260505010829 47 70 3.5 4.3 0.00 0.00 0.00 79 1014.3
20260505010525 47 72 3.5 4.3 0.00 0.00 0.00 79 1014.7
20260505010046 48 74 3.5 3.5 0.00 0.00 0.00 78 1013.7
20260505005521 48 79 3.5 4.3 0.00 0.00 0.00 77 1014.3
20260505005059 49 81 0.9 1.7 0.00 0.00 0.00 76 1013.7
20260505004639 49 293 0.0 1.7 0.00 0.00 0.00 76 1014.3
20260505004602 49 281 0.0 1.7 0.00 0.00 0.00 76 1014.7
20260505004020 49 231 0.9 2.6 0.00 0.00 0.00 76 1013.7
20260505003540 48 206 1.7 2.6 0.00 0.00 0.00 76 1014.3
20260505003531 48 227 1.7 3.5 0.00 0.00 0.00 76 1014.3
20260505003127 48 160 1.7 5.2 0.00 0.00 0.00 76 1013.3
20260505002841 49 192 2.6 2.6 0.00 0.00 0.00 75 1014.3
20260505002536 49 161 1.7 3.5 0.00 0.00 0.00 76 1014.3
20260505002022 49 243 1.7 4.3 0.00 0.00 0.00 75 1013.3
20260505001532 49 257 1.7 3.5 0.00 0.00 0.00 75 1014.3
20260505001026 49 256 0.9 2.6 0.00 0.00 0.00 75 1013.3
20260505000630 49 250 0.9 3.5 0.00 0.00 0.00 75 1014.3
20260505000541 49 217 1.7 3.5 0.00 0.00 0.00 74 1014.0
20260505000043 49 219 0.9 3.5 0.00 0.00 0.00 74 1013.3
20260504235534 49 260 1.7 2.6 0.00 0.00 0.00 74 1014.0
20260504235525 49 254 1.7 3.5 0.00 0.00 0.00 74 1014.3
20260504235019 49 249 1.7 3.5 0.00 0.00 0.00 74 1013.3
20260504234550 49 267 1.7 3.5 0.00 0.00 0.00 74 1014.3
20260504234548 49 277 3.5 3.5 0.00 0.00 0.00 74 1014.0
20260504234041 50 219 2.6 8.7 0.00 0.00 0.00 73 1013.3
20260504233755 50 240 2.6 4.3 0.00 0.00 0.00 73 1014.0
20260504233613 50 219 2.6 5.2 0.00 0.00 0.00 73 1014.0
20260504233040 50 252 3.5 7.0 0.00 0.00 0.00 73 1013.3
20260504232936 50 241 2.6 5.2 0.00 0.00 0.00 73 1014.0
20260504232523 50 235 4.3 7.0 0.00 0.00 0.00 73 1014.0
20260504232055 50 247 4.3 7.0 0.00 0.00 0.00 72 1013.0
20260504231537 50 259 4.3 7.0 0.00 0.00 0.00 73 1013.7
20260504231529 50 255 4.3 7.8 0.00 0.00 0.00 73 1014.0
20260504231022 50 236 5.2 7.8 0.00 0.00 0.00 72 1013.0
20260504230745 50 230 5.2 7.0 0.00 0.00 0.00 72 1013.7
20260504230533 50 273 5.2 9.6 0.00 0.00 0.00 72 1013.7